LEMUR-2-URSA-AVION (46318 NORAD) Tracking and Keplerian Element Data

This shows tracking and keplerian element data for the satellite.

Feedback or suggestion? Click here.




ElementValue
Catalog46318
NameLEMUR-2-URSA-AVION
Epoch Orbit318
Epoch Day268.27033434
Epoch Year2020
RAAN341.0416
Inclination97.5181
Eccentricity0.0003214
Argument of Perigee148.1834
Mean Anonmoly211.9591
Mean Motion15.1096904
Decay Rate1.44E-05
L11 46318U 20061AY 20268.27033434 .00001440 00000-0 90121-4 0 9991
L22 46318 97.5181 341.0416 0003214 148.1834 211.9591 15.10969040 3188

Live tracking and technical data element details for LEMUR-2-URSA-AVION (NORAD 46318). LEMUR-2-URSA-AVION can be tracked NOW for your location showing map with azimuth and elevation plus other details from your city location.

Track the satellite on the map from your city or location and see movement details for azimuth, elevation, latitude, longitude, range, height, and movement on the map or in text.







IsCatalogInMostPopularTable: catalog: 46318, numindb: -1

Insert: records affected: 1


GetName: 46318 LEMUR-2-URSA-AVION

Hit Count: inserted at: Mon, 28 Sep 2020 15:46:32 GMT